| time (UTC) | temp C | wind direction | speed KPH | gust KPH | rain 1hr cm | rain 24hr cm | rain mn cm | humidity % | barometer mb |
| 20260504224342 | 15 | 251 | 0.0 | 4.8 | 0.00 | 6.30 | 0.00 | 60 | 1018.8 |
| 20260504223338 | 15 | 298 | 0.0 | 6.4 | 0.00 | 6.30 | 0.00 | 65 | 1018.7 |
| 20260504222338 | 14 | 298 | 0.0 | 3.2 | 0.00 | 6.30 | 0.00 | 62 | 1018.7 |
| 20260504221338 | 13 | 251 | 0.0 | 1.6 | 0.00 | 6.30 | 0.00 | 67 | 1018.5 |
| 20260504220342 | 12 | 283 | 0.0 | 6.4 | 0.00 | 7.90 | 0.00 | 67 | 1018.6 |
| 20260504215338 | 11 | 251 | 0.0 | 3.2 | 0.00 | 7.90 | 0.00 | 69 | 1018.4 |
| 20260504214413 | 11 | 268 | 0.0 | 4.8 | 0.00 | 7.90 | 0.00 | 73 | 1018.1 |
| 20260504213323 | 9 | 291 | 0.0 | 1.6 | 0.00 | 7.90 | 0.00 | 83 | 1018.0 |
| 20260504212334 | 8 | 291 | 0.0 | 1.6 | 0.00 | 7.90 | 0.00 | 88 | 1018.1 |
| 20260504211334 | 8 | 291 | 0.0 | 1.6 | 0.00 | 7.90 | 0.00 | 90 | 1018.0 |
| 20260504210343 | 7 | 291 | 0.0 | 1.6 | 0.00 | 8.10 | 0.00 | 91 | 1017.8 |
| 20260504205323 | 7 | 291 | 0.0 | 1.6 | 0.00 | 8.10 | 0.00 | 92 | 1017.7 |
| 20260504204337 | 7 | 291 | 0.0 | 0.0 | 0.00 | 8.10 | 0.00 | 93 | 1017.5 |
| 20260504203339 | 7 | 291 | 0.0 | 1.6 | 0.00 | 8.10 | 0.00 | 92 | 1017.3 |
| 20260504202350 | 6 | 291 | 0.0 | 1.6 | 0.00 | 8.10 | 0.00 | 92 | 1017.2 |
| 20260504201330 | 6 | 291 | 0.0 | 1.6 | 0.00 | 8.10 | 0.00 | 92 | 1017.0 |
| 20260504200330 | 6 | 291 | 0.0 | 1.6 | 0.00 | 8.31 | 0.00 | 90 | 1016.7 |
| 20260504195347 | 6 | 291 | 0.0 | 1.6 | 0.00 | 8.31 | 0.00 | 91 | 1016.4 |
| 20260504194336 | 7 | 291 | 0.0 | 1.6 | 0.00 | 8.31 | 0.00 | 90 | 1016.1 |
| 20260504193333 | 7 | 291 | 0.0 | 1.6 | 0.00 | 8.31 | 0.00 | 90 | 1015.9 |
| 20260504192337 | 7 | 291 | 0.0 | 1.6 | 0.00 | 8.31 | 0.00 | 89 | 1015.8 |
| 20260504191402 | 7 | 291 | 0.0 | 1.6 | 0.00 | 8.31 | 0.00 | 87 | 1015.6 |
| 20260504190339 | 7 | 291 | 0.0 | 1.6 | 0.00 | 8.41 | 0.00 | 86 | 1015.4 |
| 20260504185349 | 8 | 317 | 0.0 | 1.6 | 0.00 | 8.41 | 0.00 | 84 | 1015.4 |
| 20260504184350 | 8 | 320 | 0.0 | 1.6 | 0.00 | 8.41 | 0.00 | 82 | 1015.3 |
| 20260504183330 | 9 | 320 | 0.0 | 1.6 | 0.00 | 8.41 | 0.00 | 78 | 1015.0 |
| 20260504182350 | 10 | 328 | 1.6 | 6.4 | 0.00 | 8.41 | 0.00 | 74 | 1014.8 |
| 20260504181330 | 10 | 302 | 0.0 | 3.2 | 0.00 | 8.41 | 0.00 | 74 | 1014.4 |
| 20260504180337 | 10 | 277 | 0.0 | 8.0 | 0.00 | 8.51 | 0.00 | 70 | 1013.9 |
| 20260504175352 | 10 | 307 | 4.8 | 12.9 | 0.00 | 8.51 | 0.00 | 67 | 1013.6 |
| 20260504174337 | 10 | 350 | 1.6 | 11.3 | 0.00 | 8.51 | 0.00 | 69 | 1013.6 |
| 20260504173331 | 10 | 284 | 1.6 | 9.7 | 0.00 | 8.51 | 0.00 | 72 | 1014.0 |
| 20260504172359 | 10 | 277 | 0.0 | 9.7 | 0.00 | 8.51 | 0.00 | 71 | 1014.1 |
| 20260504171335 | 10 | 129 | 1.6 | 4.8 | 0.00 | 8.51 | 0.00 | 74 | 1014.0 |
| 20260504170330 | 10 | 321 | 0.0 | 4.8 | 0.00 | 8.51 | 0.00 | 76 | 1013.7 |
| 20260504160335 | 10 | 275 | 0.0 | 11.3 | 0.00 | 8.51 | 0.00 | 77 | 1012.1 |
| 20260504150404 | 10 | 292 | 0.0 | 3.2 | 0.00 | 8.51 | 1.70 | 90 | 1009.3 |
| 20260504141327 | 9 | 20 | 1.6 | 3.2 | 0.00 | 8.51 | 1.70 | 97 | 1007.6 |
| 20260504140351 | 10 | 290 | 0.0 | 1.6 | 0.00 | 8.51 | 1.70 | 97 | 1007.7 |
| 20260504130328 | 11 | 291 | 0.0 | 3.2 | 0.00 | 8.51 | 1.70 | 93 | 1006.1 |
| 20260504110351 | 12 | 96 | 0.0 | 1.6 | 0.00 | 8.51 | 1.70 | 98 | 1002.6 |
| 20260504100339 | 13 | 301 | 0.0 | 1.6 | 0.30 | 8.51 | 1.70 | 98 | 1001.4 |
| 20260504081337 | 16 | 260 | 0.0 | 0.0 | 0.61 | 8.20 | 1.65 | 99 | 999.4 |
| 20260504080334 | 16 | 260 | 0.0 | 0.0 | 0.71 | 8.20 | 1.65 | 98 | 999.5 |
| 20260504070323 | 16 | 260 | 0.0 | 0.0 | 3.00 | 7.49 | 1.50 | 97 | 998.4 |
| 20260504050339 | 18 | 260 | 0.0 | 1.6 | 0.00 | 4.50 | 0.89 | 95 | 997.5 |
| 20260504045338 | 18 | 260 | 0.0 | 1.6 | 0.00 | 4.50 | 0.89 | 95 | 997.5 |
| 20260504044343 | 18 | 260 | 0.0 | 1.6 | 0.00 | 4.50 | 0.89 | 95 | 997.7 |
| 20260504043343 | 18 | 260 | 0.0 | 1.6 | 0.00 | 4.50 | 0.89 | 95 | 997.6 |
| 20260504042323 | 18 | 260 | 0.0 | 0.0 | 0.00 | 4.50 | 0.89 | 95 | 998.2 |
| 20260504041352 | 18 | 260 | 0.0 | 1.6 | 0.00 | 4.50 | 0.89 | 96 | 998.3 |
| 20260504040353 | 18 | 260 | 0.0 | 1.6 | 0.00 | 4.50 | 0.89 | 96 | 998.0 |
| 20260504035339 | 18 | 260 | 0.0 | 1.6 | 0.00 | 4.50 | 0.89 | 96 | 998.1 |
| 20260504034342 | 18 | 260 | 0.0 | 0.0 | 0.00 | 4.50 | 0.89 | 97 | 998.0 |
| 20260504033325 | 18 | 260 | 0.0 | 1.6 | 0.00 | 4.50 | 0.89 | 96 | 998.2 |
| 20260504032342 | 18 | 233 | 0.0 | 1.6 | 0.00 | 4.50 | 0.89 | 97 | 997.8 |
| 20260504031327 | 18 | 231 | 0.0 | 0.0 | 0.00 | 4.50 | 0.89 | 97 | 997.8 |
| 20260504030352 | 18 | 231 | 0.0 | 0.0 | 0.00 | 4.50 | 0.89 | 98 | 997.9 |
| 20260504025333 | 18 | 231 | 0.0 | 1.6 | 0.00 | 4.50 | 0.89 | 98 | 997.8 |
| 20260504024342 | 18 | 231 | 0.0 | 1.6 | 0.00 | 4.50 | 0.89 | 97 | 997.9 |
| 20260504023342 | 18 | 231 | 0.0 | 1.6 | 0.00 | 4.50 | 0.89 | 98 | 998.1 |
| 20260504022326 | 18 | 231 | 0.0 | 1.6 | 0.00 | 4.50 | 0.89 | 98 | 998.0 |
| 20260504021328 | 18 | 231 | 0.0 | 1.6 | 0.00 | 4.50 | 0.89 | 98 | 998.0 |
| 20260504020358 | 18 | 231 | 0.0 | 1.6 | 0.10 | 4.50 | 0.89 | 98 | 998.0 |
| 20260504015333 | 18 | 226 | 0.0 | 3.2 | 0.20 | 4.50 | 0.89 | 98 | 997.9 |
| 20260504014336 | 18 | 282 | 0.0 | 1.6 | 0.61 | 4.50 | 0.89 | 98 | 998.0 |
| 20260504013342 | 19 | 282 | 0.0 | 1.6 | 1.09 | 4.50 | 0.89 | 99 | 997.9 |
| 20260504012325 | 19 | 282 | 0.0 | 1.6 | 1.40 | 4.50 | 0.89 | 99 | 998.0 |
| 20260504011327 | 18 | 282 | 0.0 | 0.0 | 1.50 | 4.50 | 0.89 | 99 | 998.1 |
| 20260504010347 | 18 | 282 | 0.0 | 0.0 | 1.40 | 4.39 | 0.89 | 99 | 998.2 |
| 20260504005335 | 17 | 282 | 0.0 | 1.6 | 1.40 | 4.29 | 0.86 | 99 | 998.4 |
| 20260504004334 | 17 | 282 | 0.0 | 1.6 | 0.99 | 3.91 | 0.79 | 99 | 998.3 |
| 20260504003332 | 17 | 282 | 0.0 | 0.0 | 0.61 | 3.40 | 0.69 | 99 | 998.2 |
| 20260504002337 | 17 | 282 | 0.0 | 1.6 | 0.30 | 3.10 | 0.61 | 98 | 998.0 |
| 20260504001339 | 17 | 282 | 0.0 | 0.0 | 0.30 | 3.00 | 0.61 | 98 | 997.9 |
| 20260504000338 | 18 | 282 | 0.0 | 0.0 | 0.41 | 3.00 | 0.61 | 98 | 997.9 |
| 20260503235342 | 18 | 282 | 0.0 | 0.0 | 0.30 | 2.90 | 0.58 | 98 | 997.7 |
| 20260503234333 | 18 | 282 | 0.0 | 0.0 | 0.30 | 2.90 | 0.58 | 98 | 997.7 |
| 20260503233335 | 18 | 282 | 0.0 | 3.2 | 0.20 | 2.79 | 0.56 | 98 | 997.7 |
| 20260503232335 | 18 | 289 | 0.0 | 0.0 | 0.30 | 2.79 | 0.56 | 98 | 997.4 |
| 20260503231409 | 18 | 289 | 0.0 | 0.0 | 0.30 | 2.69 | 0.53 | 98 | 997.3 |
| 20260503230350 | 18 | 289 | 0.0 | 1.6 | 0.41 | 2.59 | 0.51 | 98 | 997.3 |
| 20260503225347 | 18 | 289 | 0.0 | 0.0 | 0.61 | 2.59 | 0.51 | 98 | 997.0 |